Tucson, AZ

12:27 AM MST on March 29, 2017 (GMT -0700)
Tucson International

Weather History for KTUS - December, 2010

Change the Weather History Date:

Friday, December 3, 2010

  Actual Average Record
Temperature  
Mean Temperature 62 °F 54 °F  
Max Temperature 79 °F 67 °F 84 °F (1954)
Min Temperature 44 °F 41 °F 22 °F (1934)
Degree Days  
Heating Degree Days 3 11  
Month to date heating degree days 21 33  
Since 1 July heating degree days 260 239  
Cooling Degree Days 0 0  
Month to date cooling degree days 0 0  
Year to date cooling degree days 3351 3146  
Growing Degree Days 12 (Base 50)    
Moisture  
Dew Point 6 °F    
Average Humidity 13    
Maximum Humidity 19    
Minimum Humidity 6    
Precipitation  
Precipitation 0.00 in 0.03 in 2.15 in (1906)
Month to date precipitation 0.00 0.08  
Year to date precipitation 10.67 10.74  
Snow  
Snow 0.00 in - - ()
Month to date snowfall 0.0  
Snow Depth 0.00 in    
Sea Level Pressure  
Sea Level Pressure 30.03 in    
Wind  
Wind Speed 6 mph (SE)    
Max Wind Speed 14 mph    
Max Gust Speed 23 mph    
Visibility 10 miles    
Events      
T = Trace of Precipitation, MM = Missing Value Source: NWS Daily Summary

Daily Weather History Graph

Daily Weather History Graph

Search for Another Location

Airport or City:

Trip Planner

Search our weather history database for the weather conditions in past years. The results will help you decide how hot, cold, wet, or windy it might be!

Date:

Astronomy

Dec. 03, 2010 Rise Set
Actual Time 7:08 AM MST 5:18 PM MST
Civil Twilight 6:41 AM MST 5:45 PM MST
Nautical Twilight 6:11 AM MST 6:15 PM MST
Astronomical Twilight 5:41 AM MST 6:45 PM MST
Moon 5:01 AM MST (12/3) 3:37 PM MST (12/3)
Length of Visible Light 11h 03m
Length of Day
10h 10m
Waning Crescent, 5% of the Moon is Illuminated
Dec 3
Waning Crescent
Dec 5
New
Dec 13
First Quarter
Dec 21
Full
Dec 27
Last Quarter

Hourly Weather History & Observations

Time (MST) Temp. Windchill Dew Point Humidity Pressure Visibility Wind Dir Wind Speed Gust Speed Precip Events Conditions
12:53 AM 48.0 °F - 1.0 °F 14% 30.05 in 10.0 mi SE 6.9 mph - N/A   Clear
1:53 AM 46.9 °F - 1.9 °F 16% 30.04 in 10.0 mi SE 6.9 mph - N/A   Clear
2:53 AM 46.4 °F 42.9 °F 3.2 °F 17% 30.12 in 10.0 mi SE 6.9 mph - N/A   Clear
3:53 AM 46.9 °F - 1.9 °F 16% 30.03 in 10.0 mi SE 8.1 mph - N/A   Clear
4:53 AM 46.9 °F - 3.9 °F 17% 30.04 in 10.0 mi SSE 8.1 mph - N/A   Clear
5:53 AM 46.0 °F 39.9 °F 3.9 °F 18% 30.04 in 10.0 mi SE 13.8 mph - N/A   Clear
6:53 AM 45.0 °F 40.6 °F 5.0 °F 19% 30.06 in 10.0 mi SE 8.1 mph - N/A   Clear
7:53 AM 46.0 °F 41.9 °F 5.0 °F 19% 30.08 in 10.0 mi SSE 8.1 mph - N/A   Clear
9:53 AM 62.1 °F - 6.1 °F 11% 30.08 in 10.0 mi SSE 12.7 mph - N/A   Clear
10:53 AM 66.0 °F - 7.0 °F 10% 30.07 in 10.0 mi SE 5.8 mph - N/A   Clear
11:53 AM 71.1 °F - 6.1 °F 8% 30.04 in 10.0 mi Calm Calm - N/A   Clear
12:53 PM 75.9 °F - 5.0 °F 6% 29.99 in 10.0 mi NNE 5.8 mph - N/A   Clear
1:53 PM 77.0 °F - 7.0 °F 7% 29.98 in 10.0 mi North 3.5 mph - N/A   Clear
2:53 PM 78.1 °F - 6.1 °F 6% 29.95 in 10.0 mi NE 4.6 mph - N/A   Clear
3:53 PM 77.0 °F - 8.1 °F 7% 29.95 in 10.0 mi NNE 3.5 mph - N/A   Clear
4:53 PM 75.0 °F - 10.0 °F 8% 29.95 in 10.0 mi Calm Calm - N/A   Clear
5:53 PM 70.0 °F - 12.9 °F 11% 29.97 in 10.0 mi NNW 3.5 mph - N/A   Clear
6:53 PM 64.0 °F - 12.9 °F 14% 29.99 in 10.0 mi Calm Calm - N/A   Clear
7:53 PM 57.9 °F - 10.9 °F 16% 30.02 in 10.0 mi South 5.8 mph - N/A   Clear
8:53 PM 54.0 °F - 9.0 °F 17% 30.03 in 10.0 mi South 6.9 mph - N/A   Clear
9:53 PM 51.1 °F - 6.1 °F 16% 30.04 in 10.0 mi SE 8.1 mph - N/A   Clear
10:53 PM 48.0 °F - 7.0 °F 19% 30.05 in 10.0 mi SSE 6.9 mph - N/A   Clear
11:53 PM 48.9 °F - 8.1 °F 19% 30.04 in 10.0 mi SE 8.1 mph - N/A   Clear